Temp
56 58 58 58 59 57 58 57 59 60 58 56 55 54 53 54 54 56 56 56 57 57 52 51 51 51 50 48 49 48 48 48 48 46 50 48 49 50 47 47 47 48 49
57 58 58 57 55 56 56 58 57 57 56 55 54 54 53 54 57 58 57 56 54 53 53 50 49 49 48 47 46 46 45 45 45 43 42 41 46 45 49 45 47 43 45
55 56 57 55 55 56 56 57 57 58 57 57 55 54 54 54 53 51 50 51 52 52 51 50 48 47 46 45 44 44 43 42 43 44 42 38 36 38 43 46 43 42 42
57 56 55 54 55 53 55 57 58 58 58 57 56 55 53 52 49 48 48 49 50 50 50 49 47 46 45 43 44 44 41 41 39 41 45 41 39 35 36 40 45 41 44
55 55 55 56 55 54 54 55 57 58 57 56 55 52 50 48 47 47 47 48 48 48 49 47 48 47 45 42 41 41 40 40 38 38 38 39 39 38 36 34 37 39 40
52 54 56 56 54 53 53 53 55 55 55 54 52 50 48 46 46 46 46 46 46 47 47 49 46 44 43 41 40 40 39 38 38 38 37 37 38 38 37 35 36 36 38
53 56 57 54 52 50 51 54 52 50 50 49 48 48 47 47 48 50 50 50 48 46 45 44 43 42 42 41 41 39 38 37 35 35 35 36 35 36 39 37 36 35 38
54 52 51 50 50 51 50 50 51 50 51 50 50 49 50 49 51 52 50 47 44 44 43 42 43 44 43 41 39 38 37 36 34 34 34 34 34 35 35 36 33 30 31
50 50 50 50 50 50 50 50 51 51 51 51 50 50 49 49 48 47 45 43 42 45 42 45 44 44 42 41 39 37 36 35 34 34 33 33 34 34 34 35 35 33 27
49 49 49 50 50 50 50 50 50 50 49 49 48 49 47 47 46 45 43 42 43 46 46 44 42 43 43 42 38 36 36 35 34 34 33 33 33 32 32 32 32 33 32
48 49 49 51 50 49 49 47 48 48 46 46 46 45 45 45 44 43 42 42 42 44 44 43 43 43 41 39 38 36 36 35 34 32 32 32 32 30 30 30 30 31 31
48 49 49 50 49 47 46 46 45 45 45 45 44 44 44 44 42 42 41 43 43 41 40 41 42 41 40 38 37 36 35 33 32 31 31 31 35 29 29 28 29 29 31
47 47 47 47 47 46 47 45 45 44 44 44 42 42 41 41 40 40 42 43 41 41 41 41 39 38 38 38 36 34 33 31 31 31 30 30 29 27 27 28 28 29 32
47 46 46 47 48 46 45 44 43 43 43 43 42 41 40 41 40 39 40 40 40 39 38 39 38 38 38 37 35 33 31 31 32 31 30 29 28 27 27 28 29 31 29
47 47 45 46 46 44 44 43 43 44 43 43 41 41 40 40 40 39 39 39 39 40 38 37 38 38 36 35 32 32 31 30 29 30 30 30 31 34 33 31 27 29 28
49 48 48 47 46 44 43 44 43 43 43 42 41 42 41 41 40 39 38 40 39 38 37 39 36 33 36 36 36 33 29 30 29 27 29 29 31 31 32 32 33 32 28
47 46 45 45 44 43 43 42 43 43 42 41 41 41 40 39 38 38 38 37 36 36 36 34 32 32 32 35 36 35 31 29 26 26 27 28 31 30 29 30 31 31 32
45 45 44 44 43 42 41 42 42 41 40 40 39 39 38 38 37 37 36 35 36 34 32 31 31 31 32 35 34 32 30 26 26 26 26 26 27 28 29 28 28 28 29
45 44 44 43 42 41 42 41 40 40 39 39 38 38 38 37 36 35 34 34 33 31 30 31 31 29 29 34 33 30 24 24 24 27 27 27 27 29 30 27 27 27 28
45 44 43 42 41 41 41 39 39 38 38 38 38 38 37 36 35 34 32 32 31 31 31 31 29 31 27 32 32 30 21 17 22 24 25 27 28 30 30 26 25 23 26
43 42 42 40 40 40 40 39 38 37 39 39 38 37 36 35 34 33 33 32 31 30 27 28 26 27 27 26 31 30 20 20 23 23 23 25 28 29 29 28 25 25 27
41 41 40 39 40 40 38 36 35 38 38 37 36 35 34 35 36 31 30 30 28 27 24 17 19 21 22 29 28 30 29 29 18 21 23 24 29 28 28 27 27 27 25
38 39 38 38 39 38 37 35 36 37 36 35 34 33 33 33 32 30 28 27 25 21 22 23 16 19 23 20 27 27 29 27 18 21 25 27 27 26 25 26 26 24 23
37 37 37 35 35 36 37 36 36 36 34 33 33 34 33 31 30 30 30 27 21 21 25 21 19 16 18 16 18 20 15 21 22 19 18 21 23 21 20 21 22 22 22
37 36 34 34 34 35 34 34 34 33 32 32 34 32 31 29 29 30 28 27 29 28 23 20 19 7 6 15 24 25 17 13 17 11 9 14 16 17 18 17 18 20 20
35 34 34 33 34 34 32 32 33 32 31 32 32 31 31 29 29 28 27 33 33 33 33 32 21 13 23 28 30 30 29 28 26 11 5 1 6 12 16 14 13 14 16
MSLP
1019.36 1018.96 1018.70 1019.25 1019.02 1019.65 1019.83 1020.57 1021.18 1021.59 1021.24 1021.50 1021.63 1021.84 1022.11 1022.28 1022.51 1022.42 1022.48 1022.42 1022.30 1022.31 1022.11 1022.12 1022.17 1022.23 1022.36 1022.50 1022.48 1022.35 1022.24 1021.97 1021.68 1021.31 1020.94 1020.52 1020.16 1020.18 1020.28 1020.11 1020.17 1020.05 1019.89
1019.76 1019.63 1019.58 1019.47 1019.87 1020.37 1020.77 1021.05 1021.15 1021.18 1021.23 1021.49 1021.80 1022.12 1022.35 1022.60 1022.73 1022.79 1022.87 1022.88 1022.80 1022.61 1022.34 1022.42 1022.42 1022.40 1022.58 1022.62 1022.65 1022.74 1022.68 1022.45 1022.22 1022.39 1021.82 1020.98 1020.65 1020.79 1020.59 1020.51 1020.52 1020.56 1020.32
1020.52 1020.71 1020.36 1020.73 1020.65 1020.89 1021.19 1021.39 1021.43 1021.33 1021.24 1021.37 1021.73 1022.35 1022.54 1022.75 1022.89 1023.21 1023.38 1023.25 1023.03 1022.70 1022.77 1022.86 1022.90 1022.94 1022.89 1023.04 1022.98 1023.09 1023.24 1023.14 1022.72 1022.67 1022.85 1022.18 1021.83 1021.48 1020.87 1020.61 1020.58 1020.45 1020.42
1020.65 1020.92 1021.20 1021.51 1021.59 1021.73 1021.59 1021.58 1021.59 1021.60 1021.64 1021.62 1022.08 1022.36 1022.70 1023.05 1023.43 1023.57 1023.65 1023.51 1023.25 1023.24 1023.06 1023.35 1023.27 1023.27 1023.44 1023.51 1023.34 1023.39 1023.46 1023.35 1023.58 1023.09 1023.14 1022.86 1022.62 1022.18 1021.17 1020.90 1020.76 1020.41 1020.24
1020.93 1021.35 1021.46 1021.50 1021.51 1021.67 1021.83 1021.87 1021.92 1021.99 1022.13 1022.21 1022.49 1022.85 1023.23 1023.58 1023.85 1024.04 1024.09 1023.90 1023.73 1023.83 1023.71 1023.41 1023.19 1023.44 1023.55 1023.60 1023.67 1023.67 1023.60 1023.52 1023.77 1023.75 1023.50 1023.08 1022.85 1022.35 1022.11 1021.08 1020.84 1020.75 1020.27
1021.71 1021.54 1021.51 1021.88 1022.10 1022.62 1022.64 1022.68 1022.68 1022.70 1022.52 1022.68 1022.93 1023.24 1023.72 1024.21 1024.35 1024.13 1023.94 1023.84 1023.93 1023.52 1023.13 1023.18 1023.24 1023.21 1023.27 1023.24 1023.43 1023.68 1023.61 1023.62 1023.62 1023.55 1023.49 1023.53 1023.35 1022.94 1022.55 1021.79 1021.16 1020.76 1020.21
1021.64 1021.62 1022.03 1022.55 1022.87 1022.91 1022.90 1022.91 1022.96 1023.39 1023.42 1023.37 1023.50 1023.68 1023.95 1024.00 1023.90 1023.55 1023.35 1023.28 1023.16 1023.26 1023.08 1023.31 1023.43 1023.09 1023.06 1023.34 1023.48 1023.54 1023.65 1023.59 1023.71 1023.55 1023.24 1023.14 1023.20 1023.02 1022.70 1022.22 1021.48 1020.83 1020.29
1022.00 1022.27 1022.66 1023.01 1023.41 1023.40 1023.47 1023.40 1023.43 1023.75 1023.72 1023.67 1023.77 1023.73 1023.61 1023.60 1023.55 1023.43 1023.25 1023.00 1022.84 1022.88 1023.12 1023.67 1023.51 1023.66 1023.63 1023.08 1023.36 1023.29 1023.35 1023.43 1023.45 1023.51 1023.26 1023.06 1023.11 1022.81 1022.49 1022.37 1022.13 1021.17 1020.56
1022.46 1022.66 1023.00 1023.46 1023.83 1023.90 1023.97 1023.91 1023.91 1024.06 1024.15 1024.20 1024.18 1024.11 1024.01 1023.84 1023.68 1023.48 1023.26 1023.01 1022.98 1022.97 1023.33 1023.58 1023.96 1023.52 1024.29 1023.46 1023.24 1023.30 1023.28 1023.34 1023.25 1023.02 1023.03 1023.13 1022.82 1022.44 1022.24 1022.07 1021.88 1021.69 1020.87
1023.12 1023.34 1023.75 1024.15 1024.03 1023.92 1024.02 1024.07 1024.15 1024.43 1024.53 1024.51 1024.45 1024.39 1024.32 1024.17 1023.81 1023.34 1022.99 1023.09 1022.92 1022.68 1022.89 1023.41 1023.86 1023.70 1023.25 1023.30 1022.93 1023.19 1023.04 1023.12 1022.82 1022.75 1023.07 1023.29 1022.53 1022.21 1022.07 1021.87 1021.57 1021.42 1021.11
1023.51 1023.74 1024.00 1023.96 1024.22 1024.53 1024.48 1024.71 1024.80 1024.94 1025.01 1024.84 1024.61 1024.40 1024.19 1023.81 1023.48 1023.27 1022.99 1022.75 1022.85 1022.88 1023.00 1023.14 1023.46 1023.19 1022.73 1022.56 1022.96 1022.78 1022.82 1022.59 1022.79 1022.92 1023.13 1023.16 1022.55 1022.16 1021.95 1021.65 1021.32 1020.95 1020.65
1023.72 1023.90 1024.19 1024.42 1024.72 1024.98 1025.08 1025.14 1025.28 1025.22 1025.11 1024.91 1024.73 1024.56 1024.33 1023.91 1023.55 1023.19 1023.27 1023.38 1023.47 1023.29 1023.14 1022.85 1022.73 1022.59 1022.63 1022.33 1022.42 1022.55 1022.66 1022.80 1022.87 1022.97 1023.11 1022.80 1022.28 1021.97 1021.74 1021.44 1021.03 1020.63 1020.04
1023.99 1024.23 1024.42 1024.58 1024.72 1025.19 1025.22 1025.21 1025.23 1025.18 1024.95 1024.74 1024.60 1024.39 1024.12 1023.79 1023.49 1023.20 1023.00 1022.74 1022.64 1022.45 1022.31 1022.43 1022.53 1022.46 1022.42 1022.12 1022.26 1022.45 1022.62 1022.91 1022.90 1022.83 1022.72 1022.43 1022.09 1021.81 1021.44 1021.04 1020.55 1020.00 1019.25
1024.10 1024.36 1024.58 1024.46 1024.69 1024.89 1025.04 1025.12 1025.11 1024.83 1024.57 1024.43 1024.25 1024.21 1024.06 1023.84 1023.50 1023.19 1022.95 1022.60 1022.36 1022.39 1022.46 1022.37 1022.23 1022.35 1022.16 1022.03 1022.21 1022.52 1022.73 1022.78 1022.68 1022.53 1022.35 1022.12 1021.88 1021.52 1021.01 1020.49 1019.98 1019.45 1018.98
1024.18 1024.26 1024.43 1024.50 1024.69 1024.85 1024.91 1024.87 1024.70 1024.43 1024.19 1024.15 1024.14 1024.11 1023.89 1023.71 1023.41 1023.18 1022.84 1022.71 1022.65 1022.50 1022.33 1022.18 1022.11 1022.06 1022.04 1022.04 1022.37 1022.54 1022.58 1022.64 1022.51 1022.33 1022.16 1021.87 1021.51 1020.99 1020.47 1019.95 1019.61 1019.19 1018.75
1023.74 1023.82 1023.99 1024.11 1024.52 1024.72 1024.69 1024.57 1024.39 1024.22 1024.07 1024.09 1024.09 1023.90 1023.70 1023.44 1023.14 1022.94 1022.72 1022.50 1022.37 1022.27 1022.04 1021.80 1021.90 1022.17 1021.90 1022.14 1022.21 1022.32 1022.56 1022.61 1022.51 1022.27 1021.90 1021.58 1021.10 1020.55 1020.08 1019.62 1019.11 1018.75 1018.27
1023.59 1023.75 1023.88 1024.01 1024.22 1024.36 1024.35 1024.38 1024.17 1024.03 1024.10 1024.13 1023.91 1023.72 1023.60 1023.39 1023.02 1022.69 1022.47 1022.26 1022.11 1021.95 1021.97 1021.98 1022.12 1022.20 1022.29 1022.25 1022.24 1022.32 1022.51 1022.65 1022.51 1022.20 1021.77 1021.25 1020.67 1020.27 1019.74 1019.15 1018.58 1018.06 1017.68
1023.51 1023.65 1023.71 1023.83 1023.86 1024.08 1024.32 1024.27 1024.10 1024.10 1024.11 1023.99 1023.84 1023.64 1023.43 1023.15 1022.77 1022.53 1022.34 1022.16 1021.91 1021.83 1021.92 1022.07 1022.31 1022.45 1022.35 1022.32 1022.50 1022.57 1022.74 1022.73 1022.43 1022.05 1021.55 1021.00 1020.43 1019.92 1019.24 1018.58 1017.98 1017.56 1017.14
1023.24 1023.35 1023.43 1023.56 1023.84 1024.21 1024.22 1024.21 1024.18 1024.21 1024.09 1023.78 1023.68 1023.47 1023.18 1022.92 1022.62 1022.44 1022.07 1021.74 1021.65 1021.78 1022.04 1022.43 1022.53 1022.55 1022.66 1022.58 1022.60 1022.60 1022.64 1022.52 1022.20 1021.79 1021.31 1020.71 1020.15 1019.55 1018.83 1018.03 1017.39 1016.90 1016.59
1023.13 1023.28 1023.45 1023.77 1023.98 1024.13 1024.22 1024.31 1024.20 1023.96 1023.74 1023.42 1023.26 1023.14 1023.00 1022.79 1022.47 1022.11 1021.82 1021.59 1021.69 1021.89 1022.24 1022.57 1022.70 1022.83 1022.92 1022.76 1022.64 1022.48 1022.46 1022.50 1022.00 1021.60 1021.07 1020.58 1019.96 1019.09 1018.43 1017.85 1017.35 1016.76 1016.23
1023.32 1023.54 1023.77 1024.03 1024.14 1024.16 1024.16 1024.17 1023.99 1023.75 1023.24 1023.02 1022.96 1022.91 1022.73 1022.52 1022.16 1021.91 1021.67 1021.52 1021.67 1021.98 1022.40 1022.63 1022.97 1023.09 1023.07 1022.99 1022.68 1022.37 1022.20 1022.14 1021.84 1021.51 1020.96 1020.44 1019.72 1018.93 1018.32 1017.82 1017.40 1016.76 1016.21
1023.65 1023.76 1024.01 1024.10 1024.11 1024.10 1024.14 1024.07 1023.89 1023.35 1023.07 1022.92 1022.85 1022.71 1022.53 1022.30 1022.05 1021.89 1021.71 1021.73 1022.03 1022.38 1022.77 1023.11 1023.41 1023.31 1023.23 1022.91 1022.64 1022.23 1022.08 1021.82 1021.80 1021.48 1020.94 1020.40 1019.58 1018.99 1018.46 1017.99 1017.39 1016.87 1016.47
1023.84 1023.92 1024.09 1024.23 1024.24 1024.22 1024.14 1024.00 1023.69 1023.34 1023.13 1022.95 1022.67 1022.52 1022.41 1022.25 1022.04 1021.92 1022.03 1022.22 1022.48 1022.66 1022.92 1023.18 1023.38 1023.45 1023.22 1022.99 1022.62 1022.27 1022.02 1021.85 1021.66 1021.35 1020.85 1020.38 1019.82 1019.25 1018.75 1018.20 1017.64 1017.16 1016.67
1023.99 1024.08 1024.31 1024.46 1024.40 1024.13 1023.99 1023.99 1023.60 1023.23 1023.05 1022.75 1022.35 1022.28 1022.48 1022.21 1021.96 1021.92 1022.04 1022.29 1022.47 1022.67 1022.83 1023.00 1023.20 1023.25 1023.29 1022.91 1022.55 1022.22 1021.94 1021.82 1021.63 1021.35 1021.01 1020.68 1020.19 1019.59 1019.19 1018.63 1018.04 1017.54 1017.03
1024.10 1024.26 1024.45 1024.47 1024.27 1024.06 1023.96 1023.75 1023.41 1023.16 1023.00 1022.62 1022.38 1022.32 1022.42 1022.41 1022.09 1022.05 1022.13 1022.27 1022.14 1022.14 1022.27 1022.55 1022.76 1023.03 1022.99 1022.69 1022.30 1021.92 1021.79 1021.67 1021.64 1021.43 1021.22 1020.99 1020.59 1020.04 1019.48 1019.07 1018.58 1018.00 1017.41
1024.14 1024.29 1024.27 1024.17 1024.04 1023.91 1023.76 1023.49 1023.18 1023.01 1022.83 1022.61 1022.29 1022.05 1022.07 1022.21 1022.13 1022.15 1022.13 1022.00 1021.88 1021.77 1021.77 1021.88 1021.99 1022.16 1022.18 1022.13 1021.94 1021.77 1021.79 1021.74 1021.71 1021.91 1021.90 1021.66 1021.23 1020.76 1020.12 1019.65 1019.13 1018.65 1018.17
Wind_Speed
5 9 11 7 12 11 10 6 6 2 3 4 3 4 3 3 3 5 7 6 5 6 6 5 5 5 5 4 4 3 4 4 5 3 6 3 4 4 3 4 4 5 6
12 12 12 12 10 9 8 8 7 5 4 3 2 2 1 2 4 3 4 5 5 5 6 5 5 6 4 6 6 5 4 2 4 3 3 4 5 3 4 2 2 4 3
10 7 9 8 8 9 7 6 6 6 6 6 3 3 2 2 1 2 2 5 5 6 7 6 5 6 5 4 4 6 7 4 3 5 2 4 3 3 2 5 1 3 3
9 7 7 7 8 5 4 4 4 4 3 3 2 2 3 2 1 2 1 3 6 6 5 5 6 5 4 5 4 5 3 3 4 3 5 2 2 3 6 3 8 4 7
8 8 8 8 5 4 4 2 2 2 1 1 3 2 3 3 3 3 4 4 5 6 6 5 4 4 3 4 5 5 5 3 1 1 3 2 4 3 3 11 5 4 5
6 6 6 6 4 5 5 4 4 5 5 5 5 5 6 5 4 2 3 2 1 3 3 3 3 4 4 4 3 2 3 2 1 1 2 2 4 6 5 5 12 10 7
7 7 7 7 7 7 6 5 7 8 7 8 8 8 7 6 5 5 4 4 3 1 4 4 4 3 4 3 2 2 2 1 1 2 2 1 2 2 4 5 8 5 6
6 7 8 8 7 7 7 7 8 7 6 6 5 5 6 4 4 5 4 5 3 3 4 1 2 6 2 3 2 1 1 1 2 4 3 2 3 3 2 3 5 9 4
7 10 9 7 6 6 6 6 6 5 4 3 3 4 5 6 6 7 5 3 1 2 3 1 5 2 5 2 1 1 3 2 3 4 3 4 3 2 3 3 3 4 8
8 8 6 5 4 6 6 7 6 6 6 7 6 6 6 6 7 6 5 3 4 4 6 3 6 5 3 4 2 3 3 5 3 2 3 4 2 3 3 3 3 4 7
7 7 5 5 6 5 7 7 7 7 5 5 5 6 6 7 7 5 5 6 2 2 2 2 3 7 6 4 4 5 6 4 3 3 4 6 5 4 4 4 4 6 5
7 6 6 5 5 6 5 6 4 4 3 3 4 5 6 6 7 6 4 4 3 3 1 4 7 7 6 5 5 5 2 1 2 3 5 6 5 5 5 4 7 7 8
6 5 4 5 6 4 4 5 3 1 1 3 4 5 6 6 7 5 3 5 6 7 5 5 6 7 6 4 3 3 1 1 3 5 6 6 6 6 6 7 8 7 8
5 4 4 6 5 4 4 3 1 0 2 3 4 5 5 5 5 4 6 6 5 5 5 7 7 5 6 3 2 2 1 5 5 5 5 6 6 7 9 8 6 8 4
5 5 4 5 4 5 4 3 2 2 1 3 3 5 5 6 6 6 7 5 5 5 6 6 5 5 3 1 3 4 5 5 6 6 6 6 9 18 15 8 7 8 7
4 3 1 5 5 6 5 4 5 5 2 3 5 6 6 6 7 6 6 5 5 5 5 5 4 5 2 4 7 4 4 5 6 7 7 7 13 12 19 19 19 15 8
6 4 5 7 7 7 7 7 6 3 3 5 6 6 6 6 6 6 6 6 5 3 6 4 2 2 1 3 6 9 3 6 6 7 8 9 8 15 11 15 19 17 17
6 6 6 6 7 5 4 5 4 4 4 6 6 6 6 7 6 6 6 5 4 5 4 3 3 3 4 7 5 5 6 5 6 8 9 9 11 10 14 12 9 7 7
7 7 6 5 2 4 6 5 5 5 6 6 6 6 7 7 6 7 7 6 4 2 2 3 4 5 3 5 5 5 3 5 7 8 9 10 10 15 21 11 10 8 8
3 2 1 2 0 4 4 4 5 6 7 6 6 6 6 6 7 7 6 2 1 4 4 4 4 5 2 5 8 8 2 4 5 7 8 14 13 19 18 10 8 8 9
6 5 5 2 3 3 2 6 6 7 7 6 5 6 5 6 6 5 3 2 4 5 4 4 3 3 2 3 8 10 1 3 4 6 6 7 17 17 16 14 8 8 9
5 5 4 3 3 4 5 7 7 7 6 6 6 6 5 4 4 5 4 2 5 5 2 3 0 1 2 3 6 10 11 11 2 6 6 7 16 15 15 11 16 15 8
3 2 3 3 5 6 5 5 6 6 7 7 7 5 5 4 4 3 3 2 3 2 2 2 2 2 2 3 7 10 11 10 3 4 9 14 15 14 10 15 15 9 6
2 1 2 4 5 5 5 5 7 7 6 9 8 3 4 4 3 1 2 3 2 2 3 2 3 2 2 3 3 3 3 4 4 5 4 6 8 6 6 7 8 6 6
0 2 3 4 6 5 5 6 6 6 5 5 5 4 2 5 0 2 3 2 4 4 3 3 3 3 3 3 5 5 2 2 2 3 3 3 4 5 5 6 6 6 7
1 3 4 4 6 6 6 6 6 5 5 6 6 4 2 3 3 3 2 5 7 8 9 8 6 3 7 6 7 5 6 9 7 3 2 3 3 4 5 5 5 5 8
Wind_Direction
55 62 61 68 78 60 62 63 95 51 99 60 38 27 52 26 38 37 28 46 61 57 61 58 46 32 46 24 13 341 344 329 355 340 329 287 302 360 59 57 38 26 10
70 71 81 77 68 87 96 77 93 82 78 78 84 106 138 78 65 55 48 49 60 48 61 54 46 46 38 21 20 25 341 327 18 341 277 341 322 17 341 49 46 27 357
99 80 83 81 77 72 95 114 125 128 128 136 103 56 67 89 73 57 30 15 33 43 41 45 50 45 49 40 31 19 18 332 331 10 344 338 316 313 312 313 312 27 1
118 128 111 92 104 123 137 111 95 87 85 111 102 142 177 176 39 66 56 20 38 39 57 51 59 73 64 59 58 55 48 27 18 330 4 311 252 304 313 359 319 328 328
136 132 128 141 145 141 133 139 110 65 43 24 37 46 49 45 62 54 38 7 37 34 38 74 102 78 84 91 82 65 55 66 81 347 314 312 318 277 319 305 305 296 294
172 148 125 138 93 36 31 31 41 35 14 44 43 66 88 105 83 35 24 23 355 185 191 111 106 125 126 107 90 69 51 31 352 261 317 313 321 315 297 284 303 301 303
166 134 96 66 60 44 35 67 66 54 56 71 67 81 101 124 170 211 209 214 242 217 168 166 179 155 112 98 102 68 21 15 337 308 300 280 261 271 300 307 311 311 315
78 85 90 90 76 74 76 81 86 92 90 97 124 153 175 202 236 247 252 263 241 209 132 204 57 35 240 154 167 153 237 279 319 309 306 288 280 249 271 295 320 325 317
105 90 82 83 81 78 72 77 86 88 61 28 353 317 291 278 277 298 295 283 125 122 183 106 29 247 269 240 204 259 279 261 261 284 294 267 263 283 278 297 287 288 303
103 102 107 131 104 63 63 52 53 50 14 357 343 320 319 312 291 280 262 217 201 176 148 149 229 257 260 288 263 269 264 253 270 256 257 275 266 304 298 286 278 266 266
126 120 120 92 77 69 63 63 59 58 30 11 353 1 336 326 318 284 241 223 232 146 205 332 323 271 250 231 255 254 261 266 290 359 333 305 310 299 299 287 272 269 255
127 126 131 110 88 86 77 81 76 67 21 355 7 350 314 320 315 287 340 11 345 33 0 255 249 249 255 246 255 284 310 310 319 319 299 285 303 296 279 272 279 274 272
119 124 109 134 133 133 118 102 79 53 320 16 12 358 350 347 338 323 190 168 195 232 259 316 286 263 269 282 264 221 190 275 270 265 272 282 294 294 289 288 284 275 271
140 161 160 168 152 135 134 137 160 315 356 3 17 6 337 306 282 241 235 241 262 296 302 287 274 278 283 279 182 158 196 255 265 278 280 285 283 287 288 287 289 292 308
184 180 170 179 153 150 172 190 225 269 276 357 332 301 286 273 277 274 272 287 285 298 283 286 276 299 286 172 161 215 250 279 285 286 285 281 287 303 307 300 300 292 290
206 191 177 169 188 191 207 225 241 248 249 291 277 287 305 299 284 286 289 273 283 287 263 272 336 295 101 191 211 230 290 304 298 296 300 293 298 295 305 301 299 295 290
217 233 242 203 205 207 212 229 240 254 279 284 279 288 292 288 289 284 284 285 290 307 298 336 111 81 354 279 292 313 312 311 309 308 304 301 303 310 296 296 293 286 286
235 240 220 221 218 217 243 261 262 277 292 276 270 285 287 289 293 294 276 263 260 267 296 125 105 77 31 37 26 11 341 313 304 305 302 297 302 299 305 304 321 293 275
230 230 218 225 199 231 266 302 304 281 275 278 281 285 285 288 292 282 277 276 261 308 109 102 94 87 51 11 15 343 294 300 306 310 310 307 315 309 309 312 299 286 282
242 226 291 90 98 305 310 275 269 285 283 283 277 286 295 294 292 295 301 300 53 119 125 109 96 95 42 356 353 342 257 294 311 311 315 317 321 321 328 323 306 292 292
95 84 75 61 297 316 352 316 297 278 271 274 286 298 300 303 299 306 283 271 156 113 114 125 116 103 65 346 351 351 275 281 310 320 318 314 319 338 341 351 327 339 332
91 78 68 30 1 346 342 309 298 285 284 286 285 285 291 306 321 324 332 105 133 133 127 131 267 300 297 337 343 353 343 338 335 313 307 299 338 346 350 349 347 352 340
101 90 68 347 320 319 314 316 304 319 302 290 273 273 296 310 323 327 139 101 115 140 200 208 208 240 254 283 321 330 340 354 319 300 326 344 345 349 345 347 355 348 334
107 56 332 306 302 313 332 315 307 305 301 296 280 269 289 303 336 13 118 129 156 213 235 226 229 235 276 278 295 294 323 326 341 331 330 330 334 332 335 343 349 345 336
175 306 297 296 299 304 303 295 301 306 305 318 312 305 302 294 235 160 171 194 224 201 203 221 199 171 266 253 282 336 341 322 307 344 352 335 342 341 347 348 345 347 350
250 287 300 309 302 298 300 300 305 291 293 317 307 255 235 269 222 196 250 261 255 262 249 229 191 228 232 264 301 336 358 358 6 19 355 325 326 332 343 346 338 346 351